Regional Weather Roundup
Issued by NWS Green Bay, WI

Home | Current Version | Previous Version | Text Only | Print | Product List | Glossary On
Versions: 1 2 3 4 5 6 7 8 9 10 11 12 13 14 15 16 17 18 19 20 21 22 23 24 25 26 27 28 29 30 31 32 33 34 35 36 37 38 39 40 41 42 43 44 45 46 47 48 49 50
000
ASUS43 KGRB 200910
RWRGRB

NORTH-CENTRAL AND NORTHEAST WISCONSIN REGIONAL WEATHER ROUNDUP
NATIONAL WEATHER SERVICE GREEN BAY WI
400 AM CDT WED AUG 20 2014

WIZ005-009-010>012-018-019-201000-
NORTH CENTRAL WISCONSIN

CITY           SKY/WX    TMP DP  RH WIND       PRES   REMARKS
IRONWOOD       CLOUDY    55  55 100 CALM      29.81S VSB 3/4
MANITOWISH WTR CLOUDY    56  56 100 N3        29.82S
ARBOR VITAE    CLOUDY    59  57  91 N5        29.82R
EAGLE RIVER    CLOUDY    58  57  99 N6        29.81R
LAND O LAKES   CLOUDY    57  56  97 N5        29.83R
RHINELANDER    CLOUDY    59  57  93 CALM      29.82R
PHILLIPS       CLOUDY    58  57  96 NW3       29.82R
ANTIGO         CLOUDY    59  58  98 NW3       29.82R
TOMAHAWK       CLOUDY    58  57  96 CALM      29.83R
MERRILL        CLOUDY    59  59  99 CALM      29.82R
$$

WIZ013-073-201000-
NORTHEAST WISCONSIN

CITY           SKY/WX    TMP DP  RH WIND       PRES   REMARKS
IRON MOUNTAIN  CLOUDY    59  56  89 NW9       29.77R
MARINETTE      CLOUDY    63  59  88 NW3       29.76R
OCONTO         PTCLDY    58  58 100 CALM      29.77S
$$

WIZ017-030-035>037-045-201000-
CENTRAL WISCONSIN

CITY           SKY/WX    TMP DP  RH WIND       PRES   REMARKS
MEDFORD        CLOUDY    58  58  99 N5        29.84R
WAUSAU         MOCLDY    61  59  93 CALM      29.81R
MOSINEE        CLOUDY    59  59 100 CALM      29.84R
MARSHFIELD     CLOUDY    61  60  97 NW3       29.82R FOG
WISC RAPIDS    FOG       61  60  97 CALM      29.83R VSB 1/4
STEVENS POINT  CLOUDY    58  58  99 CALM      29.83R
WAUPACA        CLOUDY    64  62  95 CALM      29.81R
SHAWANO        MOCLDY    60  58  94 CALM      29.80R
CLINTONVILLE   MOCLDY    61  59  94 CALM      29.81R
$$

WIZ038-039-048-051-201000-
FOX VALLEY

CITY           SKY/WX    TMP DP  RH WIND       PRES   REMARKS
NWS GREEN BAY  MOCLDY    60  60 100 W5        29.79R
APPLETON       CLOUDY    61  61 100 W6        29.80R
OSHKOSH        MOCLDY    64  62  93 W5        29.79R
FOND DU LAC    CLEAR     61  59  93 CALM      29.80R
$$

WIZ022-050-052-201000-
EAST CENTRAL WISCONSIN

CITY           SKY/WX    TMP DP  RH WIND       PRES   REMARKS
STURGEON BAY   MOCLDY    61  57  88 CALM      29.78R
MANITOWOC      CLOUDY    64  63  96 NW3       29.78S
SHEBOYGAN      MOCLDY    62  60  93 W3        29.78S
$$

LMZ563-521-522-541>543-201000-
LAKESHORE

STATION/POSITION TIME  TEMP    WIND        PRES    VSBY  WAVE
                       AIR SEA DIR/SP/G                  HT/PER
                 (UTC) (F)     (DEG/KT/KT) (MB)    (MI)  (FT/S)
SHEBOYGAN LKSHOR 0900   66 65  290/  5/  6 1008.4R
KEWAUNEE LKSHORE 0900   63     290/  1/  2 1007.4R
NORTHPORT PIER   0900   63     330/ 11/ 12 1007.5S
N MID LAKE BUOY  0900   61 61  300/ 12/ 14 1006.3R         1/ 5
S GREEN BAY BUOY 0900   65     VRB  8      1009.3R
SISTER BAY LKSHO 0900   64     340/ 10/ 11   N/A
CHAMBERS ISLAND  0900   63     300/  7/  9 1007.8S
MENOMINEE LKSHOR 0900   63     290/  5/  6 1008.6R
$$



USA.gov is the U.S. government's official web portal to all federal, state and local government web resources and services.